Montrose, CO

12:57 PM MST on February 25, 2018 (GMT -0700)
Montrose Regional

Weather History for KMTJ - October, 2013

Change the Weather History Date:

Thursday, October 31, 2013

  Actual Average Record
Temperature  
Mean Temperature 39 °F 44 °F  
Max Temperature 45 °F 58 °F 70 °F (2008)
Min Temperature 33 °F 30 °F 25 °F (1999)
Degree Days  
Heating Degree Days 26 21  
Month to date heating degree days 524 465  
Since 1 July heating degree days 618 591  
Cooling Degree Days 0 0  
Month to date cooling degree days 0 0  
Year to date cooling degree days 891 643  
Moisture  
Dew Point 30 °F    
Average Humidity 73    
Maximum Humidity 100    
Minimum Humidity 45    
Precipitation  
Precipitation 0.00 in 0.03 in 0.06 in (2000)
Month to date precipitation 1.48 1.19  
Year to date precipitation 9.75 9.84  
Sea Level Pressure  
Sea Level Pressure 30.10 in    
Wind  
Wind Speed 4 mph (SE)    
Max Wind Speed 9 mph    
Max Gust Speed 11 mph    
Visibility 9 miles    
Events Snow    
T = Trace of Precipitation, MM = Missing Value Source: NWS Daily Summary

Daily Weather History Graph

Daily Weather History Graph

Search for Another Location

Airport or City:

Trip Planner

Search our weather history database for the weather conditions in past years. The results will help you decide how hot, cold, wet, or windy it might be!

Date:

Astronomy

Oct. 31, 2013 Rise Set
Actual Time 7:37 AM MDT 6:12 PM MDT
Civil Twilight 7:09 AM MDT 6:39 PM MDT
Nautical Twilight 6:38 AM MDT 7:11 PM MDT
Astronomical Twilight 6:07 AM MDT 7:41 PM MDT
Moon 4:32 AM MDT (10/31) 4:30 PM MDT (10/31)
Length of Visible Light 11h 29m
Length of Day
10h 35m
Waning Crescent, 9% of the Moon is Illuminated
Oct 31
Waning Crescent
Nov 3
New
Nov 9
First Quarter
Nov 17
Full
Nov 25
Last Quarter

Hourly Weather History & Observations

Time (MDT) Temp. Windchill Dew Point Humidity Pressure Visibility Wind Dir Wind Speed Gust Speed Precip Events Conditions
12:18 AM 34.0 °F 29.8 °F 32.0 °F 92% 30.07 in 3.0 mi NNW 4.6 mph - 0.00 in Snow Light Snow
12:23 AM 34.0 °F 29.8 °F 32.0 °F 92% 30.07 in 2.5 mi North 4.6 mph - 0.01 in Snow Light Snow
12:26 AM 34.0 °F - 32.0 °F 92% 30.06 in 1.5 mi Calm Calm - 0.01 in Snow Light Snow
12:37 AM 33.1 °F 28.7 °F 32.0 °F 96% 30.06 in 2.0 mi East 4.6 mph - 0.02 in Snow Light Snow
12:43 AM 33.1 °F 27.7 °F 32.0 °F 96% 30.06 in 8.0 mi East 5.8 mph - 0.02 in   Overcast
12:53 AM 33.1 °F 27.7 °F 32.0 °F 96% 30.06 in 9.0 mi ESE 5.8 mph - 0.02 in   Overcast
1:53 AM 33.1 °F 27.7 °F 32.0 °F 96% 30.08 in 10.0 mi SE 5.8 mph - N/A   Mostly Cloudy
2:53 AM 34.0 °F 28.0 °F 33.1 °F 96% 30.08 in 10.0 mi SE 6.9 mph - N/A   Overcast
3:53 AM 34.0 °F 29.8 °F 32.0 °F 92% 30.05 in 10.0 mi SE 4.6 mph - N/A   Overcast
4:53 AM 34.0 °F 28.8 °F 32.0 °F 92% 30.06 in 10.0 mi ESE 5.8 mph - N/A   Overcast
5:53 AM 34.0 °F 28.8 °F 32.0 °F 92% 30.09 in 10.0 mi SE 5.8 mph - N/A   Overcast
6:53 AM 34.0 °F - 32.0 °F 92% 30.09 in 10.0 mi Calm Calm - N/A   Overcast
7:53 AM 34.0 °F - 30.9 °F 89% 30.12 in 10.0 mi Calm Calm - N/A   Overcast
8:53 AM 35.1 °F 32.2 °F 32.0 °F 89% 30.14 in 10.0 mi SE 3.5 mph - N/A   Overcast
9:53 AM 37.0 °F 33.3 °F 33.1 °F 86% 30.15 in 10.0 mi ESE 4.6 mph - N/A   Overcast
10:53 AM 41.0 °F - 30.9 °F 67% 30.14 in 10.0 mi Calm Calm - N/A   Overcast
11:53 AM 42.1 °F - 27.0 °F 55% 30.15 in 10.0 mi Calm Calm - N/A   Overcast
12:53 PM 43.0 °F 41.3 °F 24.1 °F 47% 30.13 in 10.0 mi SSW 3.5 mph - N/A   Overcast
1:53 PM 43.0 °F 41.3 °F 23.0 °F 45% 30.12 in 10.0 mi West 3.5 mph - N/A   Overcast
2:53 PM 44.1 °F 42.5 °F 25.0 °F 47% 30.11 in 10.0 mi Variable 3.5 mph - N/A   Overcast
3:53 PM 44.1 °F - 24.1 °F 45% 30.10 in 10.0 mi Calm Calm - N/A   Overcast
4:53 PM 45.0 °F 41.8 °F 25.0 °F 46% 30.08 in 10.0 mi SE 5.8 mph - N/A   Overcast
5:53 PM 44.1 °F 40.8 °F 27.0 °F 51% 30.08 in 10.0 mi SE 5.8 mph - N/A   Mostly Cloudy
6:53 PM 42.1 °F 39.2 °F 28.0 °F 58% 30.09 in 10.0 mi East 4.6 mph - N/A   Overcast
7:53 PM 41.0 °F 38.0 °F 30.0 °F 65% 30.11 in 10.0 mi SSE 4.6 mph - N/A   Overcast
8:53 PM 39.9 °F - 30.9 °F 70% 30.12 in 10.0 mi Calm Calm - N/A   Overcast
9:53 PM 37.0 °F 32.4 °F 30.9 °F 79% 30.13 in 10.0 mi SE 5.8 mph - N/A   Scattered Clouds
10:53 PM 37.0 °F 34.5 °F 30.9 °F 79% 30.12 in 10.0 mi SE 3.5 mph - N/A   Overcast
11:53 PM 37.9 °F 33.5 °F 30.0 °F 73% 30.11 in 10.0 mi SSE 5.8 mph - N/A   Overcast